This demonstration page uses our WeatherBlox Daily Observations layout. Learn more.

Left ArrowRight Arrow

40.92945, -100.16068

Hourly Observations for February 15, 2022

Temp ( °F °C ) Dew Point ( °F °C ) Humidity (%) Winds ( mph kmh ) Pressure ( in mb ) Visibility ( mi km ) Precip ( " mm )
12:15 am 00:15 Clear 29 -1.7 15 -9.7 55 55 ESE 9 15 30.10 1019 10 16 0.00 0.00
12:35 am 00:35 Clear 29 -1.7 14 -9.8 54 54 SE 9 15 30.10 1019 10 16 0.00 0.00
12:55 am 00:55 Clear 29 -1.7 14 -10 54 54 ESE 9 15 30.09 1019 10 16 0.00 0.00
1:15 am 01:15 Clear 29 -1.9 14 -10 54 54 ESE 10 17 30.09 1019 10 16 0.00 0.00
1:35 am 01:35 Clear 29 -1.8 14 -10.1 54 54 ESE 10 17 30.08 1019 10 16 0.00 0.00
1:55 am 01:55 Clear 29 -1.8 14 -10.2 53 53 ESE 10 17 30.07 1018 10 16 0.00 0.00
2:15 am 02:15 Clear 29 -1.8 14 -10.2 53 53 ESE 9 15 30.06 1018 10 16 0.00 0.00
2:35 am 02:35 Clear 28 -2.1 14 -10.1 55 55 ESE 8 13 30.05 1018 10 16 0.00 0.00
2:55 am 02:55 Clear 28 -2.1 14 -10.1 55 55 SE 9 15 30.04 1017 10 16 0.00 0.00
3:15 am 03:15 Clear 28 -2.3 14 -10 56 56 ESE 8 13 30.03 1017 10 16 0.00 0.00
3:35 am 03:35 Clear 28 -2.5 14 -10 57 57 ESE 8 13 30.02 1017 10 16 0.00 0.00
3:55 am 03:55 Clear 28 -2.3 15 -9.7 57 57 ESE 8 13 30.01 1016 10 16 0.00 0.00
4:15 am 04:15 Clear 28 -2.5 15 -9.6 59 59 ESE 7 11 30.00 1016 10 16 0.00 0.00
4:35 am 04:35 Clear 27 -3 15 -9.7 60 60 ESE 7 11 30.00 1016 10 16 0.00 0.00
4:55 am 04:55 Clear 26 -3.6 14 -9.8 63 63 ESE 5 7 30.00 1016 10 16 0.00 0.00
5:15 am 05:15 Clear 25 -4 14 -9.8 64 64 ESE 6 9 30.00 1016 10 16 0.00 0.00
5:35 am 05:35 Clear 25 -4.1 15 -9.7 65 65 ESE 7 11 29.99 1015 10 16 0.00 0.00
5:55 am 05:55 Clear 25 -4.1 15 -9.6 66 66 E 5 7 29.99 1015 10 16 0.00 0.00
6:15 am 06:15 Clear 22 -5.7 14 -10.1 71 71 E 6 9 29.99 1016 10 16 0.00 0.00
6:35 am 06:35 Clear 21 -6.1 13 -10.5 71 71 E 6 9 29.99 1016 10 16 0.00 0.00
6:55 am 06:55 Clear 24 -4.6 15 -9.5 69 69 ESE 6 9 29.96 1015 10 16 0.00 0.00
7:15 am 07:15 Clear 23 -5 15 -9.5 71 71 ESE 6 9 29.97 1015 10 16 0.00 0.00
7:35 am 07:35 Sunny 22 -5.4 14 -10 70 70 ENE 3 6 29.97 1015 10 16 0.00 0.00
7:55 am 07:55 Sunny 22 -5.8 15 -9.6 75 75 ESE 7 11 29.96 1015 10 16 0.00 0.00
8:15 am 08:15 Sunny 24 -4.2 16 -8.8 71 71 SE 5 7 29.95 1014 10 16 0.00 0.00
8:35 am 08:35 Sunny 26 -3.5 17 -8.6 68 68 ESE 6 9 29.93 1014 10 16 0.00 0.00
8:55 am 08:55 Sunny 27 -3 17 -8.5 66 66 SE 7 11 29.92 1013 10 16 0.00 0.00
9:15 am 09:15 Sunny 28 -2.2 18 -8 65 65 SE 6 9 29.90 1012 10 16 0.00 0.00
9:35 am 09:35 Sunny 29 -1.8 18 -7.8 64 64 SE 8 13 29.88 1012 10 16 0.00 0.00
9:55 am 09:55 Sunny 31 -0.7 19 -7.4 61 61 SSE 7 11 29.86 1011 10 16 0.00 0.00
10:15 am 10:15 Sunny 32 0 20 -6.9 60 60 SE 6 9 29.86 1011 10 16 0.00 0.00
10:35 am 10:35 Sunny 34 1.3 21 -6.2 58 58 SE 5 7 29.83 1010 10 16 0.00 0.00
10:55 am 10:55 Sunny 37 2.6 22 -5.8 54 54 ESE 3 6 29.82 1010 10 16 0.00 0.00
11:15 am 11:15 Sunny 39 4.1 22 -5.3 51 51 S 3 6 29.80 1009 10 16 0.00 0.00
11:35 am 11:35 Sunny 43 6.1 23 -4.8 46 46 SSW 6 9 29.77 1008 10 16 0.00 0.00
11:55 am 11:55 Sunny 44 6.7 23 -4.9 44 44 SW 6 9 29.75 1008 10 16 0.00 0.00
12:15 pm 12:15 Sunny 44 6.7 23 -4.9 44 44 S 3 6 29.74 1007 10 16 0.00 0.00
12:35 pm 12:35 Sunny 46 7.5 23 -4.8 42 42 S 5 7 29.72 1007 10 16 0.00 0.00
12:55 pm 12:55 Sunny 46 7.9 24 -4.7 41 41 S 6 9 29.71 1006 10 16 0.00 0.00
1:15 pm 13:15 Sunny 48 8.7 24 -4.7 39 39 SSW 7 11 29.68 1005 10 16 0.00 0.00
1:35 pm 13:35 Sunny 49 9.3 24 -4.6 37 37 S 5 7 29.67 1005 10 16 0.00 0.00
1:55 pm 13:55 Sunny 50 9.8 24 -4.7 36 36 S 6 9 29.64 1004 10 16 0.00 0.00
2:15 pm 14:15 Sunny 50 10.1 23 -4.8 35 35 S 8 13 29.63 1003 10 16 0.00 0.00
2:35 pm 14:35 Sunny 50 10 23 -4.8 35 35 S 10 17 29.62 1003 10 16 0.00 0.00
2:55 pm 14:55 Sunny 51 10.5 24 -4.6 35 35 S 12 19 29.62 1003 10 16 0.00 0.00
3:15 pm 15:15 Sunny 51 10.4 24 -4.7 35 35 S 12 19 29.62 1003 10 16 0.00 0.00
3:35 pm 15:35 Sunny 51 10.5 24 -4.5 35 35 SSW 10 17 29.62 1003 10 16 0.00 0.00
3:55 pm 15:55 Sunny 50 10.1 24 -4.7 35 35 S 9 15 29.62 1003 10 16 0.00 0.00
4:15 pm 16:15 Sunny 50 9.8 24 -4.6 36 36 S 9 15 29.62 1003 10 16 0.00 0.00
4:35 pm 16:35 Sunny 49 9.6 24 -4.6 37 37 S 9 15 29.61 1003 10 16 0.00 0.00
4:55 pm 16:55 Sunny 49 9.5 24 -4.6 37 37 S 8 13 29.63 1003 10 16 0.00 0.00
5:15 pm 17:15 Sunny 49 9.2 24 -4.5 38 38 S 6 9 29.63 1003 10 16 0.00 0.00
5:35 pm 17:35 Sunny 46 7.9 24 -4.7 41 41 S 5 7 29.64 1004 10 16 0.00 0.00
5:55 pm 17:55 Sunny 45 7.1 23 -4.8 43 43 S 5 7 29.63 1003 10 16 0.00 0.00
6:15 pm 18:15 Clear 44 6.7 24 -4.7 44 44 SW 3 6 29.65 1004 10 16 0.00 0.00
6:35 pm 18:35 Clear 41 5 22 -5.5 47 47 Calm 29.67 1005 7 11 0.00 0.00
6:55 pm 18:55 Clear 38 3.5 22 -5.7 51 51 Calm 29.68 1005 10 16 0.00 0.00
7:15 pm 19:15 Clear 38 3.1 21 -6.1 51 51 W 6 9 29.69 1005 7 11 0.00 0.00
7:35 pm 19:35 Clear 35 1.6 21 -6.3 56 56 W 6 9 29.70 1006 7 11 0.00 0.00
7:55 pm 19:55 Clear 35 1.6 21 -6.1 57 57 Calm 29.70 1006 10 16 0.00 0.00
8:15 pm 20:15 Clear 34 1.1 20 -6.6 57 57 WNW 3 6 29.70 1006 10 16 0.00 0.00
8:35 pm 20:35 Clear 32 0.1 19 -7.5 57 57 NW 5 7 29.71 1006 10 16 0.00 0.00
8:55 pm 20:55 Clear 33 0.7 19 -7 57 57 Calm 29.71 1006 10 16 0.00 0.00
9:15 pm 21:15 Clear 32 0.1 19 -7.4 57 57 Calm 29.70 1006 10 16 0.00 0.00
9:35 pm 21:35 Clear 32 0 19 -7.2 59 59 Calm 29.72 1006 10 16 0.00 0.00
9:55 pm 21:55 Clear 33 0.5 20 -6.5 60 60 SSW 3 6 29.70 1006 10 16 0.00 0.00
10:15 pm 22:15 Clear 31 -0.4 19 -7.1 61 61 S 5 7 29.71 1006 10 16 0.00 0.00
10:35 pm 22:35 Clear 30 -1.1 19 -7.5 62 62 W 3 6 29.72 1006 10 16 0.00 0.00
10:55 pm 22:55 Clear 29 -1.6 19 -7.1 66 66 NW 10 17 29.74 1007 10 16 0.00 0.00
11:15 pm 23:15 Clear 29 -1.7 20 -6.8 69 69 NW 7 11 29.75 1008 10 16 0.00 0.00
11:35 pm 23:35 Clear 27 -2.7 18 -7.6 69 69 NNW 6 9 29.77 1008 10 16 0.00 0.00
11:55 pm 23:55 Clear 29 -1.6 19 -7.1 66 66 NNW 10 17 29.75 1008 10 16 0.00 0.00

Powered by AerisWeather